Location: Birkenwerder
(52.6919°N, 13.2774°E)
Time: 22:50:45
(UTC+00:00)

Cosmos 1570 Rocket - Pass Details

Date: 07 October 2020
Orbit: 763 x 788 km, 74.1° (Epoch: 24 October)

Event Time Altitude Azimuth Distance (km) Brightness Sun altitude
Exits shadow 00:34:57 23° 50° (NE) 1,642 6.2 -38.6°
Drops below altitude 10° 00:37:07 10° 37° (NE) 2,363 7.2 -38.4°
Sets 00:39:37 0° 30° (NNE) 3,296 8.2 -38.2°
